This is the latest recevied weather packets stored in our database for station/object EA1HTW-1. If no packets are shown the sender has not sent any weather packets the latest 10 day(s).
| Time | Temp. | Humidity | Pressure | Rain* | Wind** | Luminosity | Snow |
|---|---|---|---|---|---|---|---|
| 1777920561 | 10° C | 88% | 987.5 hPa | 5.33 mm | - | - | - |
| 1777919362 | 11.11° C | 90% | 987.3 hPa | 0.51 mm | - | - | - |
| 1777918163 | 11.67° C | 89% | 987.5 hPa | 1.78 mm | - | - | - |
| 1777917564 | 11.67° C | 88% | 987.5 hPa | 1.78 mm | - | - | - |
| 1777916964 | 11.67° C | 88% | 987.2 hPa | 2.03 mm | - | - | - |
| 1777916364 | 12.22° C | 88% | 987.3 hPa | 2.03 mm | - | - | - |
| 1777915164 | 11.11° C | 88% | 987.4 hPa | 2.03 mm | - | - | - |
| 1777914563 | 11.67° C | 86% | 987.3 hPa | 0.25 mm | - | - | - |
| 1777913962 | 12.22° C | 85% | 987.3 hPa | 0.25 mm | - | - | - |
| 1777913363 | 12.78° C | 83% | 987.3 hPa | 0 mm | - | - | - |
| 1777912762 | 12.78° C | 82% | 987.3 hPa | 0 mm | - | - | - |
| 1777912164 | 12.78° C | 84% | 987.4 hPa | 0 mm | - | - | - |
| 1777911562 | 12.22° C | 84% | 987.3 hPa | 0 mm | - | - | - |
| 1777910962 | 12.22° C | 85% | 987.2 hPa | 0 mm | - | - | - |
| 1777910363 | 13.33° C | 81% | 987.1 hPa | 0 mm | - | - | - |
| 1777909766 | 13.89° C | 76% | 987.3 hPa | 0 mm | - | - | - |
| 1777908564 | 13.33° C | 83% | 987 hPa | 0 mm | - | - | - |
| 1777907364 | 12.78° C | 81% | 987.1 hPa | 0 mm | - | - | - |
| 1777906762 | 13.33° C | 73% | 987.4 hPa | 0 mm | - | - | - |
| 1777906164 | 13.33° C | 73% | 987.3 hPa | 0 mm | - | - | - |
| 1777904363 | 15.56° C | 71% | 987.1 hPa | 0 mm | - | - | - |
| 1777903763 | 14.44° C | 73% | 987.1 hPa | 0 mm | - | - | - |
| 1777903162 | 14.44° C | 73% | 987.2 hPa | 0 mm | - | - | - |
| 1777902562 | 15° C | 70% | 987.1 hPa | 0 mm | - | - | - |
| 1777901963 | 14.44° C | 74% | 987.2 hPa | 0 mm | - | - | - |
* Rain latest hour (hover to see other rain measurements)
** Current wind speed in m/s (hover to see current wind gust speed)